| time (UTC) | temp F | wind direction | speed MPH | gust MPH | rain 1hr in | rain 24hr in | rain mn in | humidity % | barometer mb |
| 20260504172607 | 47 | 232 | 3.0 | 9.0 | 0.00 | 0.04 | 0.04 | 88 | 1008.1 |
| 20260504151103 | 45 | 241 | 3.0 | 8.0 | 0.03 | 0.04 | 0.03 | 91 | 1008.2 |
| 20260504141107 | 46 | 209 | 2.0 | 10.0 | 0.00 | 0.01 | 0.00 | 85 | 1007.7 |
| 20260504081100 | 36 | 152 | 0.0 | 3.0 | 0.00 | 0.01 | 0.00 | 81 | 1008.5 |
| 20260504044056 | 29 | 32 | 1.0 | 3.0 | 0.00 | 0.01 | 0.00 | 87 | 1009.0 |
| 20260504041056 | 29 | 32 | 2.0 | 3.0 | 0.00 | 0.01 | 0.00 | 86 | 1009.0 |
| 20260504034053 | 30 | 31 | 1.0 | 3.0 | 0.00 | 0.01 | 0.01 | 85 | 1009.0 |
| 20260504031054 | 30 | 31 | 1.0 | 3.0 | 0.00 | 0.01 | 0.01 | 84 | 1009.2 |
| 20260504024052 | 31 | 17 | 1.0 | 3.0 | 0.00 | 0.01 | 0.01 | 83 | 1009.1 |
| 20260504021051 | 31 | 16 | 1.0 | 3.0 | 0.00 | 0.01 | 0.01 | 82 | 1009.2 |
| 20260504014052 | 32 | 16 | 1.0 | 3.0 | 0.00 | 0.01 | 0.01 | 82 | 1009.0 |
| 20260504011051 | 33 | 16 | 1.0 | 3.0 | 0.00 | 0.01 | 0.01 | 80 | 1009.0 |
| 20260504004052 | 35 | 10 | 1.0 | 3.0 | 0.00 | 0.02 | 0.01 | 77 | 1008.9 |
| 20260504001049 | 38 | 338 | 0.0 | 1.0 | 0.00 | 0.03 | 0.01 | 71 | 1008.7 |
| 20260503234050 | 41 | 338 | 0.0 | 3.0 | 0.00 | 0.03 | 0.01 | 66 | 1008.5 |
| 20260503231050 | 43 | 328 | 0.0 | 4.0 | 0.00 | 0.03 | 0.01 | 62 | 1008.5 |
| 20260503224100 | 43 | 287 | 2.0 | 9.0 | 0.00 | 0.03 | 0.01 | 62 | 1008.5 |
| 20260503224049 | 43 | 316 | 1.0 | 8.0 | 0.00 | 0.03 | 0.01 | 64 | 1008.5 |
| 20260503221059 | 43 | 287 | 2.0 | 9.0 | 0.00 | 0.03 | 0.01 | 62 | 1008.5 |
| 20260503214046 | 43 | 345 | 1.0 | 4.0 | 0.00 | 0.04 | 0.01 | 65 | 1008.5 |
| 20260503211046 | 42 | 330 | 1.0 | 7.0 | 0.00 | 0.04 | 0.01 | 66 | 1008.6 |
| 20260503204046 | 42 | 317 | 2.0 | 9.0 | 0.00 | 0.04 | 0.01 | 65 | 1008.5 |
| 20260503201046 | 42 | 297 | 3.0 | 11.0 | 0.00 | 0.04 | 0.01 | 63 | 1008.4 |
| 20260503194044 | 42 | 308 | 3.0 | 7.0 | 0.00 | 0.04 | 0.01 | 67 | 1008.7 |
| 20260503191046 | 40 | 64 | 2.0 | 8.0 | 0.00 | 0.04 | 0.01 | 74 | 1008.9 |
| 20260503184042 | 42 | 331 | 2.0 | 10.0 | 0.00 | 0.04 | 0.01 | 69 | 1008.9 |
| 20260503182544 | 42 | 334 | 4.0 | 11.0 | 0.00 | 0.04 | 0.01 | 63 | 1009.0 |
| 20260503174041 | 41 | 193 | 2.0 | 8.0 | 0.01 | 0.04 | 0.01 | 63 | 1009.0 |